Springfield, OH

10:10 PM EDT on July 27, 2017 (GMT -0400)
Springfield-Beckley Municipal

Weather History for KSGH - April, 2013

Change the Weather History Date:

Monday, April 22, 2013

  Actual Average (KFFO) Record (KFFO)
Temperature  
Mean Temperature 48 °F -  
Max Temperature 65 °F 63 °F 82 °F (2001)
Min Temperature 30 °F 41 °F 35 °F (2015)
Degree Days  
Heating Degree Days 18    
Moisture  
Dew Point 31 °F    
Average Humidity 52    
Maximum Humidity 75    
Minimum Humidity 29    
Precipitation  
Precipitation 0.00 in - - ()
Sea Level Pressure  
Sea Level Pressure 30.29 in    
Wind  
Wind Speed 8 mph (SE)    
Max Wind Speed 10 mph    
Max Gust Speed -    
Visibility 9 miles    
Events      
Averages and records for this station are not official NWS values.
T = Trace of Precipitation, MM = Missing Value Source: NWS Daily Summary

Daily Weather History Graph

Daily Weather History Graph

Search for Another Location

Airport or City:

Trip Planner

Search our weather history database for the weather conditions in past years. The results will help you decide how hot, cold, wet, or windy it might be!

Date:

Astronomy

Apr. 22, 2013 Rise Set
Actual Time 6:47 AM EDT 8:20 PM EDT
Civil Twilight 6:18 AM EDT 8:49 PM EDT
Nautical Twilight 5:44 AM EDT 9:24 PM EDT
Astronomical Twilight 5:08 AM EDT 10:00 PM EDT
Moon 5:09 PM EDT (4/22) 4:41 AM EDT (4/22)
Length of Visible Light 14h 30m
Length of Day
13h 33m
Waxing Gibbous, 87% of the Moon is Illuminated
Apr 22
Waxing Gibbous
Apr 25
Full
May 2
Last Quarter
May 9
New
May 18
First Quarter

Hourly Weather History & Observations

Time (EDT) Temp. Windchill Dew Point Humidity Pressure Visibility Wind Dir Wind Speed Gust Speed Precip Events Conditions
12:56 AM 34.0 °F 26.6 °F 26.1 °F 73% 30.42 in 8.0 mi East 9.2 mph - N/A   Clear
1:56 AM 34.9 °F 27.7 °F 25.2 °F 68% 30.40 in 7.0 mi East 9.2 mph - N/A   Clear
2:56 AM 34.9 °F 27.1 °F 25.2 °F 68% 30.38 in 8.0 mi East 10.4 mph - N/A   Clear
3:56 AM 32.9 °F 25.9 °F 24.1 °F 70% 30.37 in 7.0 mi East 8.1 mph - N/A   Clear
4:56 AM 34.0 °F 28.8 °F 23.0 °F 64% 30.35 in 8.0 mi East 5.8 mph - N/A   Clear
5:56 AM 32.0 °F 25.6 °F 23.0 °F 69% 30.35 in 8.0 mi ENE 6.9 mph - N/A   Clear
6:56 AM 30.0 °F 23.2 °F 23.0 °F 75% 30.36 in 7.0 mi ENE 6.9 mph - N/A   Clear
7:56 AM 36.0 °F 31.1 °F 27.1 °F 70% 30.37 in 6.0 mi East 5.8 mph - N/A   Haze
8:56 AM 43.9 °F 38.8 °F 28.0 °F 54% 30.36 in 7.0 mi ESE 9.2 mph - N/A   Clear
9:56 AM 48.9 °F - 31.1 °F 50% 30.35 in 7.0 mi SE 8.1 mph - N/A   Clear
10:56 AM 52.9 °F - 32.9 °F 47% 30.35 in 1.0 mi SSE 6.9 mph - 0.00 in   Haze
11:08 AM 53.6 °F - 33.8 °F 47% 30.34 in 10.0 mi SE 6.9 mph - N/A   Clear
11:56 AM 56.8 °F - 34.0 °F 42% 30.34 in 10.0 mi Variable 3.5 mph - N/A   Clear
12:56 PM 61.0 °F - 32.9 °F 35% 30.32 in 10.0 mi ESE 6.9 mph - N/A   Clear
1:56 PM 61.9 °F - 32.9 °F 34% 30.29 in 10.0 mi South 5.8 mph - N/A   Clear
2:56 PM 63.9 °F - 34.0 °F 33% 30.26 in 10.0 mi South 9.2 mph - N/A   Clear
3:56 PM 64.9 °F - 34.0 °F 32% 30.23 in 10.0 mi SSW 8.1 mph - N/A   Clear
4:56 PM 64.9 °F - 32.9 °F 30% 30.21 in 10.0 mi South 9.2 mph - N/A   Clear
5:56 PM 65.8 °F - 32.9 °F 29% 30.20 in 10.0 mi SSW 6.9 mph - N/A   Clear
6:56 PM 64.9 °F - 32.9 °F 30% 30.19 in 10.0 mi SSW 6.9 mph - N/A   Clear
7:56 PM 61.9 °F - 34.9 °F 36% 30.18 in 10.0 mi South 4.6 mph - N/A   Clear
8:56 PM 59.0 °F - 34.9 °F 40% 30.18 in 10.0 mi SE 3.5 mph - N/A   Clear
9:56 PM 47.8 °F - 36.9 °F 66% 30.19 in 10.0 mi East 4.6 mph - N/A   Clear
10:56 PM 47.8 °F - 36.9 °F 66% 30.19 in 10.0 mi ESE 3.5 mph - N/A   Clear
11:56 PM 46.9 °F - 36.9 °F 68% 30.18 in 10.0 mi East 3.5 mph - N/A   Clear